Hourly Data Report for September 10, 2003

SHERBROOKE A
QUEBEC

45°26'00.000" N
71°41'00.000" W
241.40 m
7028124
71610
YSC

Download Data

Hourly Data (September 2003)
Hourly Data Report for September 10, 2003
TIME
LST
Temp Definition
°C
Dew Point Definition
°C
Rel Hum Definition
%
Precip. Amount Definition
mm

Wind Dir Definition
10's deg

Wind Spd Definition
km/h
Visibility Definition
km
Stn Press Definition
kPa
Hmdx Definition


Wind Chill Definition


Weather Definition


00:00 2.2 1.2 93   13 6 15.0 99.75      
01:00 1.4 0.5 94     0 15.0 99.73      
02:00 1.1 0.3 94     0 15.0 99.70      
03:00 0.5 -0.3 94   9 4 15.0 99.68      
04:00 0.2 -0.7 94     0 15.0 99.66      
05:00 -0.7 -1.7 93     0 15.0 99.67      
06:00 1.1 0.3 94   13 4 15.0 99.67      
07:00 4.4 3.6 95     0 24.1 99.67     Clear
08:00 9.0 6.7 85   20 7 24.1 99.63     Clear
09:00 13.3 8.7 74   22 9 24.1 99.60     Clear
10:00 16.6 7.9 56   23 13 24.1 99.55     Clear
11:00 18.5 9.2 55   26 11 24.1 99.48     Clear
12:00 19.7 8.7 49   27 19 24.1 99.43     Clear
13:00 21.2 9.7 48   26 15 24.1 99.35     Clear
14:00 21.7 10.0 47   26 20 24.1 99.27     Mainly Clear
15:00 21.7 11.0 51   27 15 24.1 99.22     Mainly Clear
16:00 20.6 11.9 57   29 11 24.1 99.23     Mostly Cloudy
17:00 19.6 11.7 60   27 11 15.0 99.25      
18:00 18.2 11.7 66   23 7 15.0 99.28      
19:00 17.3 12.2 72   21 6 15.0 99.32      
20:00 14.9 12.3 84   21 4 15.0 99.36      
21:00 13.0 11.2 89   23 4 15.0 99.39      
22:00 12.0 10.5 91   14 4 15.0 99.42      
23:00 11.4 10.6 95   11 4 15.0 99.44      

Notes on Data Quality.

Legend

  • E = Estimated
  • M = Missing
  • NA = Not Available*
  • [empty] = Indicates an unobserved value
Date modified: